Flag Weather past 2 weeks in Jan Mayen, Jan Mayen, Norway

Now
38 °F

Chilly.


Feels Like: 33 °F
Forecast: 37 / 42 °F
Wind: 7 mph from Southeast

Location: Jan Mayen

Current Time: Nov 29, 2014 at 6:42:46 AM

Latest Report: Nov 29, 2014 at 6:00 AM


Visibility: N/A

Pressure: 29.89 "Hg

Humidity: 99%

Dew point: 38 °F

Location of Jan MayenLocation

Historic Weather in Jan Mayen — Graph

°F

Jan Mayen temperature yesterday

Maximum temperature yesterday: 38 °F (at 10:00 PM)
Minimum temperature yesterday: 33 °F (at 8:00 AM)
Average temperature yesterday: 36 °F

Past Weeks' High & Low Weather Summary

 TemperatureHumidityPressure
High40 °F (Nov 15, 12:00 AM)100% (Nov 28, 6:00 PM)30.33 "Hg (Nov 28, 6:00 PM)
Low31 °F (Nov 20, 10:00 PM)68% (Nov 27, 5:00 PM)29.41 "Hg (Nov 26, 4:00 PM)
Average37 °F93%29.93 "Hg
* Reported Nov 14 5:00 AM — Nov 29 5:00 AM, Jan Mayen, Weather by CustomWeather, © 2014

Note: Actual official high and low records may vary slightly from our data, if they occured in-between our weather recording intervals... More about our weather records

Advertising

Jan Mayen weather history for previous 24 hours

 ConditionsComfort  
Time TempWeatherWind HumidityBarometerVisibility
5:00 AM
Nov 29
38 °FChilly.7 mph98%29.91 "HgN/A
3:00 AM38 °FChilly.6 mph99%29.96 "HgN/A
2:00 AM38 °FChilly.7 mph99%29.97 "HgN/A
1:00 AM38 °FLow clouds.7 mph99%29.98 "Hg6 mi
12:00 AM38 °FChilly.7 mph97%29.99 "HgN/A
11:00 PM
Nov 28
38 °FChilly.8 mph97%30.01 "HgN/A
10:00 PM38 °FChilly.7 mph96%30.03 "HgN/A
9:00 PM38 °FChilly.7 mph96%30.03 "HgN/A
8:00 PM38 °FChilly.7 mph97%30.04 "HgN/A
7:00 PM38 °FOvercast.7 mph98%30.04 "Hg9 mi
6:00 PM37 °FChilly.2 mph100%30.05 "HgN/A
5:00 PM36 °FChilly.2 mph98%30.04 "HgN/A
4:00 PM36 °FDrizzle. Low clouds.2 mph98%30.03 "Hg3 mi
3:00 PM36 °FChilly.5 mph98%30.03 "HgN/A
2:00 PM36 °FChilly.2 mph97%30.02 "HgN/A
1:00 PM37 °FLow clouds.1 mph96%30.01 "Hg3 mi
12:00 PM36 °FChilly.1 mph95%30.00 "HgN/A
11:00 AM36 °FChilly.No wind93%29.99 "HgN/A
10:00 AM36 °FOvercast.1 mph91%29.96 "Hg19 mi
9:00 AM34 °FChilly.1 mph87%29.95 "HgN/A
8:00 AM33 °FChilly.1 mph84%29.93 "HgN/A
7:00 AM34 °FClear.1 mph83%29.90 "Hg25 mi
6:00 AM34 °FChilly.2 mph80%29.89 "HgN/A
Weather by CustomWeather, © 2014

See weather overviewHow to use our weather pages